Lapse_Rate
5.4 6.5 6.5 6.5 6.5 6.5 6.5 6.5 6.5 6.5 6.5 6.5 6.5 6.5 6.5 4.8 4.7 5.4 6.0 5.8 5.7 5.3 5.2 5.1 5.3 4.8 4.5 4.4 4.9 4.9 4.6 4.2 4.3 3.8 3.2 3.1 2.1 1.6 1.5 2.2 3.0 3.1 3.0 2.7
6.5 6.5 6.5 6.5 6.5 6.5 6.5 6.5 6.5 6.5 6.5 6.5 6.5 6.5 6.5 6.7 6.2 4.7 6.0 5.7 5.7 5.7 5.5 5.7 5.0 4.4 4.5 4.7 5.0 4.7 4.7 4.7 4.4 3.8 3.3 2.9 2.4 2.3 2.4 3.0 4.0 4.5 4.0 3.5
6.5 6.5 6.5 6.5 6.5 6.5 6.5 6.5 6.5 6.5 6.5 6.5 6.5 6.5 6.5 6.4 5.8 6.2 6.2 5.7 5.5 5.2 5.1 5.7 5.7 5.2 4.3 4.4 4.7 5.4 4.9 4.8 4.9 4.4 3.7 3.2 3.1 3.1 3.0 3.5 3.1 4.3 5.5 5.3
6.5 6.4 6.5 6.5 6.5 6.5 6.5 6.5 6.5 6.5 6.5 6.5 6.5 6.5 6.5 6.5 6.5 6.5 6.0 4.4 4.5 4.9 5.1 5.5 5.2 5.3 4.4 4.2 4.1 4.5 4.9 4.7 6.0 5.1 4.2 3.6 4.9 5.7 5.9 5.4 5.3 5.5 5.4 6.0
6.5 6.5 6.5 6.5 6.5 6.5 6.5 6.5 6.5 6.5 6.5 6.5 6.5 6.5 6.5 6.5 6.5 6.5 6.1 5.0 4.2 4.2 4.6 5.1 5.6 5.9 4.4 4.0 4.0 4.3 4.3 4.1 4.5 4.4 3.9 4.7 5.0 5.1 5.9 5.8 5.5 5.5 5.9 6.1
6.5 6.2 6.5 6.5 6.5 6.5 6.5 6.5 6.5 6.5 6.5 6.5 6.5 6.5 6.5 6.5 6.5 6.5 6.4 5.6 5.3 4.7 5.1 6.3 6.3 5.0 4.6 4.0 4.3 4.7 5.3 5.9 5.6 5.2 5.3 5.0 4.8 4.6 5.3 5.6 5.0 5.3 6.2 6.6
6.5 6.5 6.5 6.4 6.5 6.5 6.5 6.5 6.5 6.5 6.5 6.5 6.5 6.5 6.5 6.5 6.5 6.5 6.4 5.5 5.0 5.1 5.2 5.5 4.6 4.5 5.0 4.8 4.6 5.5 5.2 5.6 5.6 5.5 5.5 4.5 4.7 4.9 5.4 6.3 6.8 7.1 6.1 6.0
6.5 6.5 6.5 6.5 6.5 6.5 6.5 6.5 6.5 6.5 6.5 6.5 6.5 6.5 6.5 6.5 6.3 6.2 6.1 5.6 5.6 5.1 4.7 4.6 4.9 4.8 5.2 5.4 5.3 4.9 5.8 5.7 5.4 4.7 4.2 4.6 5.1 5.2 6.1 7.2 7.6 6.9 6.4 6.2
6.5 6.5 6.5 6.5 6.5 6.5 6.5 6.5 6.5 6.5 6.5 6.5 6.5 6.5 6.5 6.5 6.5 6.3 6.0 5.6 5.2 5.0 4.8 5.2 5.5 5.2 5.4 5.5 5.6 5.2 4.6 4.7 4.2 3.9 3.9 3.6 3.3 4.0 5.2 6.6 6.7 6.2 5.9 5.7
6.5 6.5 6.5 6.5 6.5 6.5 6.5 6.5 6.5 6.5 6.5 6.5 6.5 6.5 6.5 6.5 6.5 6.5 6.3 5.3 5.2 5.1 5.7 5.6 5.7 6.0 5.9 6.0 5.4 3.7 4.1 3.6 3.4 2.5 2.2 3.1 3.6 4.6 5.2 5.9 5.0 5.3 5.3 6.2
6.5 6.5 6.5 6.5 6.5 6.5 6.5 6.5 6.5 6.5 6.5 6.5 6.5 6.5 6.5 6.5 6.5 6.5 6.0 5.2 4.7 5.3 5.3 5.2 5.6 6.0 6.0 5.6 4.2 3.6 2.9 2.3 2.0 2.0 2.4 3.1 4.9 5.0 5.0 4.9 5.2 5.7 5.8 5.2
6.5 6.5 6.5 6.5 6.5 6.5 6.5 6.5 6.5 6.5 6.5 6.5 6.5 6.5 6.5 6.5 6.5 5.8 5.8 5.6 5.4 5.9 5.8 4.9 5.6 5.8 5.4 4.3 4.1 3.5 2.4 2.1 2.4 2.8 2.7 4.2 4.8 5.8 5.8 6.1 5.9 4.7 4.5 4.7
6.5 6.5 6.5 6.5 6.5 6.5 6.5 6.5 6.5 6.5 6.5 6.5 6.5 6.5 6.5 6.4 6.5 6.1 5.7 5.7 6.3 6.4 6.1 5.4 5.5 5.1 5.8 4.5 4.2 4.1 2.9 3.0 3.4 3.2 3.1 3.8 4.3 5.2 5.5 5.4 5.6 5.5 5.7 5.8
5.1 6.5 6.5 6.5 6.5 6.5 6.5 6.5 6.5 6.5 6.5 6.5 6.5 6.5 6.5 6.5 6.5 6.6 6.1 6.7 6.0 5.9 6.1 5.7 4.9 5.6 5.7 5.1 5.1 5.3 3.9 3.5 3.4 3.2 2.9 3.5 5.1 5.7 6.1 6.2 6.5 6.9 6.7 6.2
6.5 6.5 6.5 6.5 6.5 6.5 6.5 6.5 6.5 6.5 6.5 6.5 6.5 6.5 6.5 6.5 6.5 6.5 6.6 6.8 6.0 6.4 6.7 6.1 6.4 5.9 5.1 4.6 4.5 4.8 3.6 4.1 4.2 3.7 3.1 3.5 5.3 5.5 5.2 6.2 6.2 6.7 6.3 6.5
6.5 6.5 6.5 6.5 6.5 6.5 6.5 6.5 6.5 6.5 6.5 6.5 6.5 6.5 6.5 6.5 6.7 6.3 6.4 6.4 6.5 6.7 7.1 6.7 7.2 7.0 5.9 5.6 4.9 5.1 4.4 4.3 4.2 5.0 3.9 4.3 6.1 6.2 5.1 5.2 6.0 7.0 7.1 6.4
6.5 6.5 6.5 6.5 6.5 6.5 6.5 6.5 6.5 6.5 6.5 6.5 6.5 6.5 6.5 6.5 6.5 6.0 5.9 6.2 6.3 6.6 6.8 6.5 6.6 6.2 5.9 5.5 5.6 5.1 4.5 4.3 4.3 5.0 5.8 6.4 5.7 6.1 5.1 4.7 4.5 5.8 6.2 6.1
6.5 6.5 6.5 6.5 6.5 6.5 6.5 6.5 6.5 6.5 6.5 6.5 6.5 6.5 6.5 6.0 5.1 5.2 5.9 6.7 6.0 6.0 6.5 6.5 5.9 5.9 5.7 5.7 5.5 5.0 4.5 4.5 4.6 4.8 5.5 5.4 5.0 6.0 5.8 4.2 5.6 6.5 7.2 6.2
6.5 6.5 6.5 6.5 6.5 6.5 6.5 6.5 6.5 6.5 6.5 6.5 6.5 6.5 6.5 5.9 5.6 6.3 6.7 6.7 6.7 6.8 6.1 5.1 5.1 5.5 5.6 5.1 4.8 4.8 4.6 4.3 4.7 4.9 4.9 4.8 4.6 5.1 7.1 6.4 7.2 7.4 7.1 6.1
6.5 6.5 6.5 6.5 6.5 6.5 6.5 6.5 6.3 6.5 6.5 6.4 5.9 6.4 6.3 4.7 6.5 6.5 6.1 5.9 5.4 5.9 5.5 5.6 5.6 5.6 4.9 4.5 4.6 4.6 4.6 4.6 4.9 4.9 4.6 4.6 4.9 5.2 5.8 7.0 7.2 6.9 6.6 6.5
6.5 6.5 6.5 6.5 6.5 6.5 6.5 6.4 6.5 6.5 6.5 6.4 6.1 6.2 6.1 6.4 4.3 4.5 5.0 5.2 5.5 5.0 5.4 5.4 5.1 4.9 5.3 5.7 4.5 4.4 4.6 5.0 5.5 5.7 4.9 5.1 5.4 5.3 5.5 7.6 7.5 7.1 6.1 6.5
6.5 6.5 6.5 6.5 6.5 6.5 6.4 6.5 6.5 6.2 6.1 6.3 6.5 6.2 5.7 5.3 5.3 5.6 5.6 5.0 5.6 5.7 5.4 5.5 5.5 5.6 6.1 6.7 5.2 4.8 4.7 5.5 6.1 6.0 6.0 5.6 5.5 6.0 6.6 7.2 7.9 7.1 6.3 6.1
6.5 6.5 6.5 6.5 6.5 6.3 6.5 5.6 6.3 4.9 4.5 5.4 5.7 5.3 5.4 5.2 5.6 5.3 4.9 5.5 5.7 5.9 6.0 6.7 6.0 6.5 7.0 7.7 7.6 5.6 5.2 6.0 6.1 5.9 6.1 5.9 6.1 6.1 5.8 5.5 6.3 6.5 6.3 6.2
6.5 6.6 6.5 6.5 6.5 6.5 6.6 6.4 6.4 6.4 6.1 6.4 6.8 6.2 5.7 5.0 4.9 5.2 5.1 5.0 6.1 6.7 6.1 6.2 6.5 6.3 6.3 7.6 8.2 6.3 6.0 6.3 6.2 5.9 5.9 6.0 5.9 5.5 5.5 5.4 6.3 6.9 6.4 6.9
6.5 6.5 6.5 6.5 6.5 6.1 6.4 6.1 6.0 6.2 6.4 6.6 6.3 6.2 5.9 5.8 5.8 6.3 6.5 6.3 6.2 6.3 7.0 7.6 8.0 7.1 6.9 7.5 7.7 8.2 7.0 5.9 5.6 5.5 5.7 5.4 6.1 5.7 4.3 5.0 3.9 3.8 5.4 6.4
6.4 6.5 6.5 6.5 6.2 5.6 6.2 6.3 6.9 6.6 6.4 6.9 7.0 7.0 7.1 7.1 7.0 6.5 5.9 5.6 6.0 6.1 5.7 5.8 5.8 6.6 7.1 7.3 7.6 8.9 6.4 6.0 4.8 5.3 5.5 4.8 5.2 5.0 4.7 4.6 3.3 4.7 5.6 6.4
Wind_Speed
7 3 7 12 11 13 7 7 8 11 9 1 6 4 7 9 6 8 14 16 15 14 9 9 8 9 9 9 9 8 9 8 5 5 4 5 4 5 5 5 7 11 11 8
7 9 15 15 8 5 6 7 8 8 11 5 5 7 7 10 4 6 19 15 14 11 9 9 8 8 8 8 7 8 8 8 5 4 4 3 4 3 4 5 12 13 13 13
8 9 6 2 4 6 7 5 7 7 7 10 9 9 7 6 10 18 15 14 11 12 10 10 8 8 7 8 8 7 7 7 5 6 3 3 3 3 4 5 4 7 15 14
9 8 4 2 4 7 7 9 8 9 7 5 4 12 17 5 8 12 13 12 11 9 9 8 8 7 7 5 7 7 7 6 7 8 7 7 6 9 6 5 6 8 11 14
5 8 5 4 8 5 3 6 6 6 8 5 21 9 14 7 10 12 11 12 10 9 9 8 7 8 7 7 6 6 8 8 8 8 8 7 9 8 7 9 12 12 11 14
13 8 6 7 3 3 7 8 7 7 8 5 21 9 7 2 14 14 12 11 10 9 8 6 7 8 6 5 6 5 6 3 3 3 5 6 6 6 7 11 11 10 9 11
5 12 13 7 4 6 9 6 4 4 3 6 6 5 2 12 17 18 16 12 9 8 7 6 7 7 6 6 5 3 4 4 6 7 8 8 8 9 10 10 7 9 10 11
3 6 2 2 4 3 1 2 3 5 4 8 11 6 1 7 13 12 12 11 8 7 7 7 6 5 4 6 6 4 3 6 6 7 7 8 11 9 10 11 10 7 8 11
2 2 5 12 6 3 2 2 3 6 6 5 5 5 1 6 7 8 8 8 7 7 7 7 6 5 4 3 3 4 6 6 7 8 9 12 12 13 13 15 7 8 11 10
2 2 5 6 4 1 1 2 1 3 5 5 4 5 4 10 9 9 8 8 7 6 6 5 4 3 2 2 2 7 7 6 5 6 7 10 12 13 12 12 12 12 10 7
3 4 3 6 1 2 5 3 4 4 1 4 3 4 7 13 14 13 8 8 8 6 5 5 3 2 1 1 6 6 6 6 6 8 8 11 12 12 11 9 10 8 5 7
1 4 3 7 5 2 1 3 3 3 6 4 3 6 1 8 8 7 7 8 7 6 5 6 5 4 3 6 5 6 5 5 5 4 5 9 11 11 11 9 8 7 6 6
4 1 2 6 4 2 3 2 3 3 0 14 11 5 3 7 9 7 5 4 1 5 5 4 3 4 3 4 5 5 5 3 1 3 4 7 10 11 10 11 11 7 5 6
6 3 7 8 6 2 6 10 6 5 5 15 14 20 6 10 9 3 3 6 6 5 5 4 5 2 2 5 5 3 5 3 2 2 5 6 9 11 10 9 9 7 8 7
3 6 4 6 5 6 12 15 14 16 20 14 22 23 15 9 8 13 12 13 6 5 4 4 2 3 4 4 4 2 4 1 1 4 4 7 9 10 10 10 9 8 8 8
3 3 1 3 10 14 16 15 20 20 22 23 27 27 17 18 18 7 7 7 5 4 3 4 2 2 2 3 3 1 3 3 2 5 5 5 6 9 8 8 8 9 8 10
3 4 2 17 5 12 14 16 17 13 15 15 18 23 17 14 4 6 5 5 4 1 3 4 3 2 0 2 3 3 4 3 4 5 5 5 5 10 10 8 9 10 8 8
5 5 2 9 5 20 8 2 4 5 8 6 5 8 6 6 6 6 5 2 5 5 3 3 2 3 5 4 5 5 5 5 5 6 4 4 5 7 8 6 7 8 9 8
4 5 2 5 12 14 12 6 1 3 2 7 5 7 7 4 3 1 3 3 3 3 5 6 6 5 5 7 7 6 5 6 6 6 5 5 5 5 8 6 8 7 8 6
5 4 4 2 6 12 2 4 6 2 3 5 4 5 5 5 3 4 4 5 6 7 4 2 5 6 7 8 7 7 7 5 6 6 6 6 6 5 5 6 6 4 5 6
3 2 9 10 6 5 1 4 3 3 3 1 2 2 1 1 5 6 7 9 8 6 7 7 7 8 10 10 7 8 7 6 6 6 5 6 6 6 6 5 3 4 5 7
7 6 4 3 5 6 5 3 3 3 2 3 3 4 4 5 7 8 9 8 7 7 8 9 7 7 9 10 7 7 7 7 6 5 4 5 5 4 2 3 6 6 5 5
4 6 4 6 3 2 1 4 3 6 5 6 5 7 8 9 10 10 8 7 7 9 6 2 5 6 4 7 7 7 7 7 6 6 5 4 3 1 1 2 5 4 4 4
3 7 2 3 3 1 2 4 2 2 4 5 3 5 6 6 8 7 8 7 5 2 3 3 6 7 7 4 5 7 6 6 6 5 2 1 1 0 1 1 1 3 4 5
4 5 6 3 2 3 2 5 5 7 9 9 8 7 7 8 9 10 9 10 9 10 11 11 11 10 8 7 5 6 7 7 6 5 3 0 2 2 4 4 3 3 5 3
2 5 4 4 0 4 3 6 8 6 6 9 12 12 13 16 12 11 8 8 10 11 11 11 13 15 14 11 9 14 7 7 7 5 3 3 2 2 3 2 3 6 8 10
Wind_Direction
234 163 229 239 216 239 286 338 327 307 290 272 242 282 279 286 300 118 121 125 116 111 109 101 94 89 80 63 49 41 29 5 27 8 8 2 355 339 331 307 334 325 324 334
275 207 235 253 269 325 324 311 292 286 291 7 333 304 293 288 295 155 137 128 120 116 112 103 92 84 83 84 68 52 34 4 8 21 3 9 343 322 320 352 340 324 315 310
213 244 258 241 319 319 294 257 274 273 327 329 348 314 316 30 81 99 108 124 123 125 117 105 86 73 81 78 64 52 34 10 23 10 346 330 321 332 345 328 324 323 321 306
265 230 178 194 279 263 260 276 320 335 2 282 9 285 285 159 97 96 104 103 105 98 88 90 84 68 84 78 58 53 32 24 13 9 11 5 352 342 330 327 324 324 312 304
261 308 299 236 236 268 286 350 326 312 306 312 282 273 258 177 144 139 115 105 103 104 100 89 93 86 91 69 63 34 15 18 18 23 9 358 350 342 342 331 322 323 321 308
275 279 287 240 268 66 345 300 298 279 264 249 260 284 279 184 165 137 126 122 114 107 99 97 80 92 85 60 47 40 51 5 12 11 342 336 322 319 323 318 320 325 326 322
294 270 254 235 89 3 37 24 327 315 335 243 344 316 306 328 146 139 128 117 113 116 120 92 79 63 51 43 39 40 35 347 344 354 354 343 328 315 306 304 301 312 316 314
261 314 36 10 105 120 15 151 185 305 302 294 319 271 119 25 73 103 111 123 124 107 93 94 86 77 48 31 13 12 339 354 23 26 2 335 323 317 310 307 302 303 305 302
265 211 80 65 47 93 89 355 259 288 290 274 212 109 130 113 98 108 124 125 123 101 92 87 73 44 41 -0 344 358 37 38 36 15 348 332 327 321 316 312 309 301 301 296
118 262 34 26 44 90 138 242 5 336 293 257 239 240 193 177 168 161 158 154 133 118 107 108 93 56 319 324 1 90 72 69 36 6 350 334 326 320 310 306 304 301 296 295
87 113 300 42 9 2 342 351 359 14 201 264 281 248 177 187 176 179 175 161 138 126 120 144 153 170 223 61 78 87 84 63 25 10 352 342 327 318 315 311 306 302 337 349
84 128 211 221 256 331 150 248 159 177 276 249 246 260 223 109 140 134 129 133 147 160 201 166 169 179 100 96 90 78 88 61 32 346 341 334 331 335 347 351 331 342 341 336
169 81 26 320 347 277 193 70 299 289 353 270 263 268 122 128 112 98 93 341 183 165 138 137 104 89 52 125 96 78 97 95 330 309 332 334 332 330 326 330 314 306 311 320
72 166 176 235 229 292 283 283 275 220 247 275 251 272 198 177 159 194 188 252 206 147 109 95 81 60 48 120 118 125 156 154 239 358 344 332 329 317 324 326 331 342 358 7
124 198 245 244 283 293 285 281 259 251 256 244 263 263 261 284 201 206 182 212 162 123 100 111 76 329 110 123 128 107 150 201 294 14 338 327 321 317 319 330 336 348 356 347
8 195 80 255 260 262 271 263 260 257 258 256 255 264 267 281 281 118 150 130 137 135 142 112 67 61 114 133 136 88 174 241 258 282 291 296 300 315 314 313 327 334 333 336
151 137 133 274 302 317 284 263 259 251 243 243 250 262 274 264 208 115 115 101 104 180 205 116 120 126 260 198 176 221 219 223 246 269 279 303 317 310 316 315 331 329 325 328
174 122 171 287 332 278 287 64 69 225 261 251 283 25 69 83 107 115 113 138 257 256 135 130 173 227 249 229 219 212 201 227 242 251 255 279 280 297 312 319 320 318 323 327
158 135 227 262 265 291 294 329 352 151 292 10 29 41 75 76 94 36 43 20 104 173 202 206 211 216 226 242 234 205 217 236 243 251 220 251 257 273 310 309 313 317 327 329
56 73 186 155 263 278 143 72 50 27 256 2 77 50 37 25 9 265 328 317 301 265 239 195 236 236 241 249 224 188 213 235 253 232 221 227 241 253 272 305 298 308 318 309
153 190 214 225 251 285 92 105 7 98 246 31 58 78 15 235 206 241 271 268 252 210 212 234 241 245 242 249 186 189 199 228 246 202 211 231 247 242 253 289 319 310 312 301
176 179 197 199 224 260 109 34 144 195 216 225 256 274 287 275 284 281 275 265 264 252 246 236 234 253 257 244 180 198 205 221 196 179 203 257 247 243 299 334 321 322 315 331
189 198 177 202 213 237 149 176 194 187 200 229 233 264 268 262 260 269 262 266 262 260 275 301 306 306 336 165 225 224 216 192 184 177 224 253 234 201 12 2 328 319 314 322
37 192 170 102 174 79 310 306 326 297 285 303 296 306 327 304 276 278 273 280 314 341 328 309 289 276 279 261 237 237 206 190 162 153 130 353 317 95 284 292 299 296 306 313
181 155 207 226 314 15 71 53 34 5 353 342 332 316 303 307 341 6 4 9 4 359 353 343 316 290 266 291 302 262 201 171 164 150 138 234 200 260 262 240 214 241 274 238
206 198 155 209 141 161 40 10 9 343 330 3 3 2 14 14 12 10 13 14 9 10 10 0 351 326 332 336 311 292 185 173 158 161 177 174 164 260 274 228 263 267 266 281